[{"OBJECT_NAME":"QIANFAN-187","OBJECT_ID":"2026-125E","EPOCH":"2026-09-12T05:54:37.617408","MEAN_MOTION":13.51007212,"ECCENTRICITY":0.00020731,"INCLINATION":88.9888,"RA_OF_ASC_NODE":271.1566,"ARG_OF_PERICENTER":101.0311,"MEAN_ANOMALY":259.1074,"EPHEMERIS_TYPE":0,"CLASSIFICATION_TYPE":"U","NORAD_CAT_ID":69405,"ELEMENT_SET_NO":999,"REV_AT_EPOCH":1370,"BSTAR":0.000009475974,"MEAN_MOTION_DOT":1.8e-7,"MEAN_MOTION_DDOT":0},{"OBJECT_NAME":"QIANFAN-188","OBJECT_ID":"2026-125F","EPOCH":"2026-09-12T06:06:30.319776","MEAN_MOTION":13.51029191,"ECCENTRICITY":0.00019234,"INCLINATION":88.9886,"RA_OF_ASC_NODE":271.1557,"ARG_OF_PERICENTER":103.1575,"MEAN_ANOMALY":256.9791,"EPHEMERIS_TYPE":0,"CLASSIFICATION_TYPE":"U","NORAD_CAT_ID":69406,"ELEMENT_SET_NO":999,"REV_AT_EPOCH":1370,"BSTAR":0.000037221935,"MEAN_MOTION_DOT":3.6e-7,"MEAN_MOTION_DDOT":0},{"OBJECT_NAME":"QIANFAN-189","OBJECT_ID":"2026-125G","EPOCH":"2026-09-12T06:18:15.337728","MEAN_MOTION":13.51028407,"ECCENTRICITY":0.00019056,"INCLINATION":88.9868,"RA_OF_ASC_NODE":271.1508,"ARG_OF_PERICENTER":108.771,"MEAN_ANOMALY":251.3648,"EPHEMERIS_TYPE":0,"CLASSIFICATION_TYPE":"U","NORAD_CAT_ID":69407,"ELEMENT_SET_NO":999,"REV_AT_EPOCH":1369,"BSTAR":0.000027067793,"MEAN_MOTION_DOT":3e-7,"MEAN_MOTION_DDOT":0},{"OBJECT_NAME":"QIANFAN-190","OBJECT_ID":"2026-125H","EPOCH":"2026-09-12T07:47:10.205952","MEAN_MOTION":13.51033155,"ECCENTRICITY":0.00018633,"INCLINATION":88.987,"RA_OF_ASC_NODE":271.1422,"ARG_OF_PERICENTER":95.5775,"MEAN_ANOMALY":264.5589,"EPHEMERIS_TYPE":0,"CLASSIFICATION_TYPE":"U","NORAD_CAT_ID":69408,"ELEMENT_SET_NO":999,"REV_AT_EPOCH":1371,"BSTAR":0.000019507723,"MEAN_MOTION_DOT":2.5e-7,"MEAN_MOTION_DDOT":0},{"OBJECT_NAME":"QIANFAN-191","OBJECT_ID":"2026-125J","EPOCH":"2026-09-12T06:36:09.917856","MEAN_MOTION":13.51032848,"ECCENTRICITY":0.00018952,"INCLINATION":88.9883,"RA_OF_ASC_NODE":271.1583,"ARG_OF_PERICENTER":102.3944,"MEAN_ANOMALY":257.7419,"EPHEMERIS_TYPE":0,"CLASSIFICATION_TYPE":"U","NORAD_CAT_ID":69409,"ELEMENT_SET_NO":999,"REV_AT_EPOCH":1370,"BSTAR":0.000021850006,"MEAN_MOTION_DOT":2.6e-7,"MEAN_MOTION_DDOT":0},{"OBJECT_NAME":"QIANFAN-192","OBJECT_ID":"2026-125K","EPOCH":"2026-09-12T07:58:57.413280","MEAN_MOTION":13.51030081,"ECCENTRICITY":0.00019726,"INCLINATION":88.989,"RA_OF_ASC_NODE":271.1524,"ARG_OF_PERICENTER":106.6307,"MEAN_ANOMALY":253.5061,"EPHEMERIS_TYPE":0,"CLASSIFICATION_TYPE":"U","NORAD_CAT_ID":69410,"ELEMENT_SET_NO":999,"REV_AT_EPOCH":1371,"BSTAR":0.000042866285,"MEAN_MOTION_DOT":4e-7,"MEAN_MOTION_DDOT":0},{"OBJECT_NAME":"QIANFAN-193","OBJECT_ID":"2026-125L","EPOCH":"2026-09-12T06:48:05.725440","MEAN_MOTION":13.5102735,"ECCENTRICITY":0.00017995,"INCLINATION":88.9868,"RA_OF_ASC_NODE":271.1354,"ARG_OF_PERICENTER":102.1862,"MEAN_ANOMALY":257.9491,"EPHEMERIS_TYPE":0,"CLASSIFICATION_TYPE":"U","NORAD_CAT_ID":69411,"ELEMENT_SET_NO":999,"REV_AT_EPOCH":1371,"BSTAR":0.000022547918,"MEAN_MOTION_DOT":2.7e-7,"MEAN_MOTION_DDOT":0},{"OBJECT_NAME":"QIANFAN-194","OBJECT_ID":"2026-125M","EPOCH":"2026-09-12T06:42:08.408736","MEAN_MOTION":13.51026044,"ECCENTRICITY":0.000193,"INCLINATION":88.9901,"RA_OF_ASC_NODE":271.1479,"ARG_OF_PERICENTER":102.3941,"MEAN_ANOMALY":257.7426,"EPHEMERIS_TYPE":0,"CLASSIFICATION_TYPE":"U","NORAD_CAT_ID":69412,"ELEMENT_SET_NO":999,"REV_AT_EPOCH":1370,"BSTAR":0.00001128166,"MEAN_MOTION_DOT":1.9e-7,"MEAN_MOTION_DDOT":0},{"OBJECT_NAME":"QIANFAN-195","OBJECT_ID":"2026-125N","EPOCH":"2026-09-10T15:45:08.271936","MEAN_MOTION":13.4601432,"ECCENTRICITY":0.00038038,"INCLINATION":88.9872,"RA_OF_ASC_NODE":271.3035,"ARG_OF_PERICENTER":20.5485,"MEAN_ANOMALY":339.5816,"EPHEMERIS_TYPE":0,"CLASSIFICATION_TYPE":"U","NORAD_CAT_ID":69413,"ELEMENT_SET_NO":999,"REV_AT_EPOCH":1350,"BSTAR":-2.8896323,"MEAN_MOTION_DOT":-0.01624247,"MEAN_MOTION_DDOT":0},{"OBJECT_NAME":"QIANFAN-196","OBJECT_ID":"2026-125P","EPOCH":"2026-09-12T05:19:09.506784","MEAN_MOTION":13.51035202,"ECCENTRICITY":0.00018615,"INCLINATION":88.9907,"RA_OF_ASC_NODE":271.1422,"ARG_OF_PERICENTER":91.847,"MEAN_ANOMALY":268.2894,"EPHEMERIS_TYPE":0,"CLASSIFICATION_TYPE":"U","NORAD_CAT_ID":69414,"ELEMENT_SET_NO":999,"REV_AT_EPOCH":1371,"BSTAR":0.000025023464,"MEAN_MOTION_DOT":2.8e-7,"MEAN_MOTION_DDOT":0},{"OBJECT_NAME":"QIANFAN-197","OBJECT_ID":"2026-125Q","EPOCH":"2026-09-12T05:31:05.089728","MEAN_MOTION":13.51023662,"ECCENTRICITY":0.00019197,"INCLINATION":88.9882,"RA_OF_ASC_NODE":271.1147,"ARG_OF_PERICENTER":100.2566,"MEAN_ANOMALY":259.8801,"EPHEMERIS_TYPE":0,"CLASSIFICATION_TYPE":"U","NORAD_CAT_ID":69415,"ELEMENT_SET_NO":999,"REV_AT_EPOCH":1371,"BSTAR":0.000032522301,"MEAN_MOTION_DOT":3.3e-7,"MEAN_MOTION_DDOT":0},{"OBJECT_NAME":"QIANFAN-198","OBJECT_ID":"2026-125R","EPOCH":"2026-09-12T05:13:16.727808","MEAN_MOTION":13.51027993,"ECCENTRICITY":0.00019185,"INCLINATION":88.9875,"RA_OF_ASC_NODE":271.1291,"ARG_OF_PERICENTER":103.1619,"MEAN_ANOMALY":256.9746,"EPHEMERIS_TYPE":0,"CLASSIFICATION_TYPE":"U","NORAD_CAT_ID":69416,"ELEMENT_SET_NO":999,"REV_AT_EPOCH":1371,"BSTAR":0.000021080203,"MEAN_MOTION_DOT":2.6e-7,"MEAN_MOTION_DDOT":0},{"OBJECT_NAME":"QIANFAN-199","OBJECT_ID":"2026-125S","EPOCH":"2026-09-12T05:25:10.837632","MEAN_MOTION":13.51025621,"ECCENTRICITY":0.00021238,"INCLINATION":88.9879,"RA_OF_ASC_NODE":271.0782,"ARG_OF_PERICENTER":102.8231,"MEAN_ANOMALY":257.3158,"EPHEMERIS_TYPE":0,"CLASSIFICATION_TYPE":"U","NORAD_CAT_ID":69417,"ELEMENT_SET_NO":999,"REV_AT_EPOCH":1374,"BSTAR":0.000040956158,"MEAN_MOTION_DOT":3.8e-7,"MEAN_MOTION_DDOT":0},{"OBJECT_NAME":"QIANFAN-200","OBJECT_ID":"2026-125T","EPOCH":"2026-09-12T06:30:16.727616","MEAN_MOTION":13.5102612,"ECCENTRICITY":0.00018968,"INCLINATION":88.9886,"RA_OF_ASC_NODE":271.1586,"ARG_OF_PERICENTER":105.9047,"MEAN_ANOMALY":254.2313,"EPHEMERIS_TYPE":0,"CLASSIFICATION_TYPE":"U","NORAD_CAT_ID":69418,"ELEMENT_SET_NO":999,"REV_AT_EPOCH":1370,"BSTAR":0.00002150442,"MEAN_MOTION_DOT":2.6e-7,"MEAN_MOTION_DDOT":0},{"OBJECT_NAME":"QIANFAN-201","OBJECT_ID":"2026-153A","EPOCH":"2026-09-12T02:03:03.250656","MEAN_MOTION":13.96226177,"ECCENTRICITY":0.00080524,"INCLINATION":88.9976,"RA_OF_ASC_NODE":352.3886,"ARG_OF_PERICENTER":79.5989,"MEAN_ANOMALY":280.6095,"EPHEMERIS_TYPE":0,"CLASSIFICATION_TYPE":"U","NORAD_CAT_ID":69800,"ELEMENT_SET_NO":999,"REV_AT_EPOCH":987,"BSTAR":-1.3909638,"MEAN_MOTION_DOT":-0.01774356,"MEAN_MOTION_DDOT":0},{"OBJECT_NAME":"QIANFAN-202","OBJECT_ID":"2026-153B","EPOCH":"2026-09-12T01:26:09.682656","MEAN_MOTION":14.0683949,"ECCENTRICITY":0.00103138,"INCLINATION":88.9976,"RA_OF_ASC_NODE":352.3661,"ARG_OF_PERICENTER":12.0192,"MEAN_ANOMALY":348.1235,"EPHEMERIS_TYPE":0,"CLASSIFICATION_TYPE":"U","NORAD_CAT_ID":69801,"ELEMENT_SET_NO":999,"REV_AT_EPOCH":987,"BSTAR":-1.2050678,"MEAN_MOTION_DOT":-0.01871249,"MEAN_MOTION_DDOT":0},{"OBJECT_NAME":"QIANFAN-203","OBJECT_ID":"2026-153C","EPOCH":"2026-09-12T01:22:24.775680","MEAN_MOTION":14.0510175,"ECCENTRICITY":0.00089148,"INCLINATION":88.9977,"RA_OF_ASC_NODE":352.4033,"ARG_OF_PERICENTER":341.3553,"MEAN_ANOMALY":18.7301,"EPHEMERIS_TYPE":0,"CLASSIFICATION_TYPE":"U","NORAD_CAT_ID":69802,"ELEMENT_SET_NO":999,"REV_AT_EPOCH":986,"BSTAR":-1.2282363,"MEAN_MOTION_DOT":-0.01849707,"MEAN_MOTION_DDOT":0},{"OBJECT_NAME":"QIANFAN-204","OBJECT_ID":"2026-153D","EPOCH":"2026-09-12T00:17:53.945088","MEAN_MOTION":14.06028012,"ECCENTRICITY":0.00094484,"INCLINATION":88.9976,"RA_OF_ASC_NODE":352.3966,"ARG_OF_PERICENTER":22.8053,"MEAN_ANOMALY":337.3547,"EPHEMERIS_TYPE":0,"CLASSIFICATION_TYPE":"U","NORAD_CAT_ID":69803,"ELEMENT_SET_NO":999,"REV_AT_EPOCH":986,"BSTAR":-1.2416368,"MEAN_MOTION_DOT":-0.01898017,"MEAN_MOTION_DDOT":0},{"OBJECT_NAME":"QIANFAN-205","OBJECT_ID":"2026-153E","EPOCH":"2026-09-12T02:23:20.008032","MEAN_MOTION":14.03472187,"ECCENTRICITY":0.00058986,"INCLINATION":88.9973,"RA_OF_ASC_NODE":352.4086,"ARG_OF_PERICENTER":107.1201,"MEAN_ANOMALY":253.0626,"EPHEMERIS_TYPE":0,"CLASSIFICATION_TYPE":"U","NORAD_CAT_ID":69804,"ELEMENT_SET_NO":999,"REV_AT_EPOCH":986,"BSTAR":-1.2775438,"MEAN_MOTION_DOT":-0.0186704,"MEAN_MOTION_DDOT":0},{"OBJECT_NAME":"QIANFAN-206","OBJECT_ID":"2026-153F","EPOCH":"2026-09-12T01:27:49.327776","MEAN_MOTION":14.08518989,"ECCENTRICITY":0.0008502,"INCLINATION":88.9975,"RA_OF_ASC_NODE":352.3663,"ARG_OF_PERICENTER":49.6214,"MEAN_ANOMALY":310.5711,"EPHEMERIS_TYPE":0,"CLASSIFICATION_TYPE":"U","NORAD_CAT_ID":69805,"ELEMENT_SET_NO":999,"REV_AT_EPOCH":988,"BSTAR":-1.1646044,"MEAN_MOTION_DOT":-0.018644,"MEAN_MOTION_DDOT":0},{"OBJECT_NAME":"QIANFAN-207","OBJECT_ID":"2026-153G","EPOCH":"2026-09-12T04:21:40.031712","MEAN_MOTION":14.0832558,"ECCENTRICITY":0.00070196,"INCLINATION":88.9975,"RA_OF_ASC_NODE":352.3849,"ARG_OF_PERICENTER":10.6375,"MEAN_ANOMALY":349.4955,"EPHEMERIS_TYPE":0,"CLASSIFICATION_TYPE":"U","NORAD_CAT_ID":69806,"ELEMENT_SET_NO":999,"REV_AT_EPOCH":988,"BSTAR":0.000022948414,"MEAN_MOTION_DOT":5.3e-7,"MEAN_MOTION_DDOT":0},{"OBJECT_NAME":"QIANFAN-208","OBJECT_ID":"2026-153H","EPOCH":"2026-09-12T02:00:27.272736","MEAN_MOTION":13.99308751,"ECCENTRICITY":0.00067655,"INCLINATION":88.9974,"RA_OF_ASC_NODE":352.3885,"ARG_OF_PERICENTER":84.4779,"MEAN_ANOMALY":275.7171,"EPHEMERIS_TYPE":0,"CLASSIFICATION_TYPE":"U","NORAD_CAT_ID":69807,"ELEMENT_SET_NO":999,"REV_AT_EPOCH":988,"BSTAR":-1.3150529,"MEAN_MOTION_DOT":-0.01770997,"MEAN_MOTION_DDOT":0},{"OBJECT_NAME":"QIANFAN-209","OBJECT_ID":"2026-153J","EPOCH":"2026-09-12T03:03:36.973728","MEAN_MOTION":14.03639709,"ECCENTRICITY":0.00083058,"INCLINATION":88.9976,"RA_OF_ASC_NODE":352.3952,"ARG_OF_PERICENTER":318.2242,"MEAN_ANOMALY":41.8304,"EPHEMERIS_TYPE":0,"CLASSIFICATION_TYPE":"U","NORAD_CAT_ID":69808,"ELEMENT_SET_NO":999,"REV_AT_EPOCH":987,"BSTAR":-1.2437094,"MEAN_MOTION_DOT":-0.01806223,"MEAN_MOTION_DDOT":0}]